TimeCDT,TemperatureF,Dew PointF,Humidity,Sea Level PressureIn,VisibilityMPH,Wind Direction,Wind SpeedMPH,Gust SpeedMPH,PrecipitationIn,Events,Conditions,WindDirDegrees,DateUTC
12:15 AM,74.1,50.0,43,30.00,10.0,Calm,Calm,-,N/A,,Clear,0,2013-07-04 05:15:00
12:35 AM,76.3,51.3,41,30.00,10.0,ESE,4.6,-,N/A,,Clear,110,2013-07-04 05:35:00
12:55 AM,76.5,51.6,42,30.00,10.0,ESE,5.8,-,N/A,,Clear,110,2013-07-04 05:55:00
1:15 AM,73.6,50.5,44,30.00,10.0,Calm,Calm,-,N/A,,Clear,0,2013-07-04 06:15:00
1:35 AM,74.3,52.3,46,30.00,10.0,ESE,3.5,-,N/A,,Clear,110,2013-07-04 06:35:00
1:55 AM,75.4,54.0,47,30.00,10.0,ESE,3.5,-,N/A,,Clear,120,2013-07-04 06:55:00
2:15 AM,75.6,54.5,48,30.00,10.0,ESE,4.6,-,N/A,,Clear,120,2013-07-04 07:15:00
2:35 AM,76.6,54.7,46,29.99,10.0,ESE,8.1,-,N/A,,Clear,110,2013-07-04 07:35:00
2:55 AM,76.3,55.2,48,29.99,10.0,ESE,6.9,-,N/A,,Clear,110,2013-07-04 07:55:00
3:15 AM,75.9,55.6,49,29.98,10.0,ESE,8.1,-,N/A,,Clear,110,2013-07-04 08:15:00
3:35 AM,75.0,55.9,51,29.98,10.0,Calm,Calm,-,N/A,,Clear,0,2013-07-04 08:35:00
3:55 AM,75.2,55.9,51,29.98,10.0,ESE,6.9,-,N/A,,Clear,120,2013-07-04 08:55:00
4:15 AM,74.8,55.8,51,29.98,10.0,SE,4.6,-,N/A,,Clear,130,2013-07-04 09:15:00
4:35 AM,74.3,56.5,54,29.98,10.0,ESE,5.8,-,N/A,,Clear,120,2013-07-04 09:35:00
4:55 AM,74.3,57.4,55,29.98,10.0,SE,4.6,-,N/A,,Clear,140,2013-07-04 09:55:00
5:15 AM,73.6,57.9,58,29.98,10.0,SE,4.6,-,N/A,,Clear,140,2013-07-04 10:15:00
5:35 AM,73.4,58.1,59,29.98,10.0,SE,5.8,-,N/A,,Clear,130,2013-07-04 10:35:00
5:55 AM,73.4,58.5,59,29.99,10.0,SE,5.8,-,N/A,,Clear,130,2013-07-04 10:55:00
6:15 AM,73.0,59.0,61,29.99,10.0,SE,5.8,-,N/A,,Clear,130,2013-07-04 11:15:00
6:35 AM,72.3,59.2,63,29.99,10.0,ESE,3.5,-,N/A,,Clear,110,2013-07-04 11:35:00
6:55 AM,72.5,59.4,63,30.00,10.0,Calm,Calm,-,N/A,,Clear,0,2013-07-04 11:55:00
7:15 AM,72.9,59.9,64,30.00,10.0,ESE,3.5,-,N/A,,Clear,120,2013-07-04 12:15:00
7:35 AM,73.0,60.3,64,30.01,10.0,Calm,Calm,-,N/A,,Clear,0,2013-07-04 12:35:00
7:55 AM,74.3,60.8,63,30.01,10.0,East,4.6,-,N/A,,Clear,100,2013-07-04 12:55:00
8:15 AM,75.6,61.2,61,30.01,10.0,East,4.6,-,N/A,,Clear,90,2013-07-04 13:15:00
8:35 AM,77.0,61.2,58,30.01,10.0,Calm,Calm,-,N/A,,Clear,0,2013-07-04 13:35:00
8:55 AM,79.3,59.7,51,30.02,10.0,SSE,6.9,-,N/A,,Clear,160,2013-07-04 13:55:00
9:15 AM,80.1,60.1,50,30.02,10.0,SE,8.1,-,N/A,,Clear,140,2013-07-04 14:15:00
9:35 AM,81.3,60.1,48,30.02,10.0,South,6.9,-,N/A,,Clear,180,2013-07-04 14:35:00
9:55 AM,82.4,59.9,46,30.02,10.0,SSE,4.6,-,N/A,,Clear,160,2013-07-04 14:55:00
10:15 AM,83.3,59.4,44,30.01,10.0,South,6.9,-,N/A,,Clear,180,2013-07-04 15:15:00
10:35 AM,85.5,59.2,41,30.01,10.0,Calm,Calm,-,N/A,,Clear,0,2013-07-04 15:35:00
10:55 AM,86.4,58.3,38,30.01,10.0,East,4.6,-,N/A,,Clear,90,2013-07-04 15:55:00
11:15 AM,88.0,57.4,35,30.00,10.0,East,3.5,-,N/A,,Clear,90,2013-07-04 16:15:00
11:35 AM,89.4,56.5,33,30.00,10.0,Calm,Calm,-,N/A,,Clear,0,2013-07-04 16:35:00
11:55 AM,90.7,54.7,29,29.99,10.0,Calm,Calm,-,N/A,,Clear,0,2013-07-04 16:55:00
12:15 PM,91.9,52.2,26,29.99,10.0,Calm,Calm,-,N/A,,Clear,0,2013-07-04 17:15:00
12:35 PM,92.5,51.3,24,29.98,10.0,Calm,Calm,-,N/A,,Clear,0,2013-07-04 17:35:00
12:55 PM,93.7,50.9,23,29.98,10.0,Calm,Calm,-,N/A,,Clear,0,2013-07-04 17:55:00
1:15 PM,94.3,50.9,23,29.97,10.0,East,8.1,-,N/A,,Clear,90,2013-07-04 18:15:00
1:35 PM,95.0,49.1,21,29.96,10.0,NNE,6.9,-,N/A,,Clear,30,2013-07-04 18:35:00
1:55 PM,94.8,48.0,20,29.96,10.0,ESE,4.6,-,N/A,,Clear,110,2013-07-04 18:55:00
2:15 PM,95.9,46.4,18,29.95,10.0,SE,6.9,-,N/A,,Clear,140,2013-07-04 19:15:00
2:35 PM,95.5,45.3,18,29.94,10.0,East,8.1,-,N/A,,Clear,80,2013-07-04 19:35:00
2:55 PM,96.1,45.7,18,29.93,10.0,SE,4.6,-,N/A,,Clear,130,2013-07-04 19:55:00
3:15 PM,95.9,46.6,18,29.92,10.0,NE,3.5,-,N/A,,Clear,40,2013-07-04 20:15:00
3:35 PM,96.6,45.9,18,29.92,10.0,NE,9.2,-,N/A,,Clear,50,2013-07-04 20:35:00
3:55 PM,97.0,45.9,17,29.92,10.0,NE,4.6,-,N/A,,Clear,50,2013-07-04 20:55:00
4:15 PM,97.0,45.3,17,29.91,10.0,SE,5.8,-,N/A,,Clear,130,2013-07-04 21:15:00
4:35 PM,97.5,44.6,16,29.91,10.0,NE,5.8,-,N/A,,Clear,50,2013-07-04 21:35:00
4:55 PM,95.4,44.1,17,29.90,10.0,ESE,9.2,-,N/A,,Clear,110,2013-07-04 21:55:00
5:15 PM,94.8,44.2,17,29.90,10.0,Calm,Calm,-,N/A,,Clear,0,2013-07-04 22:15:00
5:35 PM,94.6,46.0,19,29.90,10.0,ESE,9.2,-,N/A,,Clear,120,2013-07-04 22:35:00
5:55 PM,94.6,45.7,19,29.89,10.0,ESE,5.8,-,N/A,,Clear,110,2013-07-04 22:55:00
6:15 PM,96.1,45.1,17,29.89,10.0,ENE,8.1,-,N/A,,Clear,70,2013-07-04 23:15:00
6:35 PM,95.9,45.1,17,29.89,10.0,East,9.2,-,N/A,,Clear,100,2013-07-04 23:35:00
6:55 PM,94.6,45.5,18,29.89,10.0,East,8.1,-,N/A,,Clear,90,2013-07-04 23:55:00
7:15 PM,94.6,45.1,18,29.89,10.0,ESE,9.2,-,N/A,,Clear,110,2013-07-05 00:15:00
7:35 PM,94.3,45.5,19,29.89,10.0,East,8.1,-,N/A,,Clear,90,2013-07-05 00:35:00
7:55 PM,93.6,47.1,20,29.89,10.0,East,6.9,-,N/A,,Clear,90,2013-07-05 00:55:00
8:15 PM,92.3,47.3,21,29.90,10.0,ESE,8.1,-,N/A,,Clear,110,2013-07-05 01:15:00
8:35 PM,91.0,49.6,24,29.90,10.0,ESE,8.1,-,N/A,,Clear,110,2013-07-05 01:35:00
8:55 PM,89.8,50.5,26,29.91,10.0,ESE,5.8,-,N/A,,Clear,120,2013-07-05 01:55:00
9:15 PM,88.3,51.1,28,29.91,10.0,ESE,5.8,-,N/A,,Clear,110,2013-07-05 02:15:00
9:35 PM,87.1,52.9,31,29.92,10.0,East,4.6,-,N/A,,Clear,80,2013-07-05 02:35:00
9:55 PM,87.1,53.6,32,29.94,10.0,East,13.8,19.6,N/A,,Clear,100,2013-07-05 02:55:00
10:15 PM,85.1,57.7,39,29.95,10.0,ESE,15.0,21.9,N/A,,Clear,120,2013-07-05 03:15:00
10:35 PM,83.8,58.3,42,29.96,10.0,ESE,13.8,17.3,N/A,,Clear,110,2013-07-05 03:35:00
10:55 PM,83.3,57.7,42,29.97,10.0,ESE,12.7,-,N/A,,Clear,120,2013-07-05 03:55:00
11:15 PM,82.4,57.7,43,29.97,10.0,ESE,12.7,20.7,N/A,,Clear,120,2013-07-05 04:15:00
11:35 PM,81.3,58.1,45,29.98,10.0,ESE,10.4,16.1,N/A,,Clear,120,2013-07-05 04:35:00
11:55 PM,80.6,58.5,47,29.98,10.0,ESE,8.1,-,N/A,,Clear,120,2013-07-05 04:55:00